Weather History for Youngstown, OH

Change the Weather History Date:

Saturday, October 6, 2012

  Actual Average Record
Temperature  
Mean Temperature 49 °F 54 °F  
Max Temperature 55 °F 64 °F 86 °F (1946)
Min Temperature 43 °F 44 °F 28 °F (1965)
Degree Days  
Heating Degree Days 16 11  
Month to date heating degree days 41 63  
Since 1 July heating degree days 231 246  
Cooling Degree Days 0 0  
Month to date cooling degree days 0 3  
Year to date cooling degree days 758 541  
Moisture  
Dew Point 40 °F    
Average Humidity 73    
Maximum Humidity 100    
Minimum Humidity 46    
Precipitation  
Precipitation 0.40 in 0.10 in 0.91 in (1959)
Month to date precipitation 0.92 0.59  
Year to date precipitation 34.15 30.56  
Snow  
Snow 0.00 in 0.00 in - ()
Month to date snowfall 0.0 0.0  
Since 1 July snowfall T 0.0  
Since 1 September snowfall 0.0 0.0  
Snow Depth 0.00 in    
Sea Level Pressure  
Sea Level Pressure 29.99 in    
Wind  
Wind Speed 9 mph (West)    
Max Wind Speed 20 mph    
Max Gust Speed 26 mph    
Visibility 8 miles    
Events Rain    
T = Trace of Precipitation, MM = Missing Value Source: NWS Daily Summary

Daily Weather History Graph

Daily Weather History Graph

Search for Another Location

Airport:

Trip Planner

Search our weather history database for the weather conditions in past years. The results will help you decide how hot, cold, wet, or windy it might be!

Date:

Astronomy

Oct. 06, 2012 Rise Set
Actual Time 7:25 AM EDT 6:55 PM EDT
Civil Twilight 6:57 AM EDT 7:23 PM EDT
Nautical Twilight 6:25 AM EDT 7:54 PM EDT
Astronomical Twilight 5:53 AM EDT 8:26 PM EDT
Moon 11:07 PM EDT (10/6) 1:21 PM EDT (10/6)
Length of Visible Light 12h 25m
Length of Day
11h 30m
Waning Gibbous, 65% of the Moon is Illuminated
Oct 6
Waning Gibbous
Oct 8
Last Quarter
Oct 15
New
Oct 21
First Quarter
Oct 29
Full

Hourly Weather History & Observations

Time (EDT) Temp. Windchill Dew Point Humidity Pressure Visibility Wind Dir Wind Speed Gust Speed Precip Events Conditions
12:12 AM 50.0 °F - 48.2 °F 94% 29.93 in 6.0 mi WNW 6.9 mph - N/A Rain Light Rain
12:31 AM 50.0 °F - 48.2 °F 94% 29.92 in 5.0 mi NW 9.2 mph - 0.05 in Rain Rain
12:51 AM 50.0 °F - 48.0 °F 93% 29.90 in 3.0 mi NNW 8.1 mph - 0.11 in Rain Rain
1:51 AM 48.9 °F - 46.9 °F 93% 29.89 in 7.0 mi NW 8.1 mph - 0.15 in Rain Light Rain
2:51 AM 46.0 °F 38.5 °F 44.1 °F 93% 29.94 in 3.0 mi WNW 19.6 mph 26.5 mph 0.05 in Rain Light Rain
3:51 AM 45.0 °F 41.8 °F 44.1 °F 97% 29.91 in 5.0 mi WNW 5.8 mph - 0.21 in Rain Rain
4:20 AM 44.6 °F 40.2 °F 44.6 °F 100% 29.91 in 8.0 mi WNW 8.1 mph - 0.02 in Rain Light Rain
4:51 AM 46.0 °F 41.4 °F 44.1 °F 93% 29.92 in 8.0 mi WNW 9.2 mph - 0.02 in Rain Light Rain
5:51 AM 45.0 °F 41.2 °F 43.0 °F 93% 29.94 in 8.0 mi West 6.9 mph - 0.00 in   Overcast
6:30 AM 44.6 °F 41.4 °F 42.8 °F 93% 29.93 in 8.0 mi West 5.8 mph - 0.00 in Rain Light Rain
6:51 AM 45.0 °F 42.6 °F 43.0 °F 93% 29.94 in 8.0 mi West 4.6 mph - 0.00 in   Overcast
7:08 AM 44.6 °F 40.2 °F 42.8 °F 93% 29.94 in 10.0 mi West 8.1 mph - N/A   Overcast
7:21 AM 44.6 °F 39.2 °F 42.8 °F 93% 29.95 in 1.0 mi WSW 10.4 mph - N/A   Overcast
7:35 AM 44.6 °F 40.7 °F 42.8 °F 93% 29.95 in 2.0 mi West 6.9 mph - 0.00 in   Light Drizzle
7:51 AM 44.6 °F 40.2 °F 42.8 °F 93% 29.95 in 2.0 mi West 8.1 mph - N/A   Light Drizzle
7:59 AM 44.6 °F 39.7 °F 42.8 °F 93% 29.95 in 6.0 mi West 9.2 mph - 0.00 in   Light Drizzle
8:51 AM 44.1 °F 38.1 °F 42.1 °F 93% 29.99 in 9.0 mi West 11.5 mph - 0.00 in   Overcast
9:33 AM 44.6 °F 38.8 °F 41.0 °F 87% 29.99 in 10.0 mi WSW 11.5 mph - N/A   Mostly Cloudy
9:51 AM 45.0 °F 38.5 °F 41.0 °F 86% 30.01 in 9.0 mi West 13.8 mph - N/A   Overcast
10:51 AM 46.9 °F - 42.1 °F 83% 30.03 in 10.0 mi WSW 10.4 mph - N/A   Mostly Cloudy
11:33 AM 48.2 °F - 39.2 °F 71% 30.02 in 10.0 mi West 11.5 mph - N/A   Mostly Cloudy
11:51 AM 50.0 °F - 37.9 °F 63% 30.03 in 10.0 mi West 10.4 mph 18.4 mph N/A   Mostly Cloudy
12:21 PM 51.8 °F - 37.4 °F 58% 30.02 in 10.0 mi West 12.7 mph - N/A   Scattered Clouds
12:51 PM 52.0 °F - 37.0 °F 57% 30.03 in 10.0 mi West 16.1 mph 19.6 mph N/A   Scattered Clouds
1:51 PM 54.0 °F - 36.0 °F 51% 30.03 in 10.0 mi WSW 13.8 mph 20.7 mph N/A   Mostly Cloudy
2:51 PM 54.0 °F - 35.1 °F 49% 30.01 in 10.0 mi WNW 11.5 mph 20.7 mph N/A   Mostly Cloudy
3:51 PM 51.8 °F - 33.8 °F 50% 30.01 in 10.0 mi West 11.5 mph - N/A   Mostly Cloudy
4:51 PM 54.0 °F - 33.1 °F 45% 30.02 in 10.0 mi West 13.8 mph 20.7 mph N/A   Mostly Cloudy
5:51 PM 50.0 °F - 35.6 °F 58% 30.03 in 10.0 mi NW 11.5 mph - N/A   Mostly Cloudy
6:51 PM 46.4 °F 42.9 °F 35.6 °F 66% 30.05 in 10.0 mi NW 6.9 mph - N/A   Mostly Cloudy
7:51 PM 46.0 °F - 35.1 °F 66% 30.09 in 10.0 mi Calm Calm - N/A   Mostly Cloudy
8:51 PM 46.0 °F 44.8 °F 37.0 °F 71% 30.10 in 10.0 mi WSW 3.5 mph - N/A   Overcast
9:51 PM 46.9 °F - 35.1 °F 63% 30.10 in 10.0 mi WNW 5.8 mph - N/A   Overcast
10:51 PM 46.0 °F 44.8 °F 36.0 °F 68% 30.10 in 10.0 mi West 3.5 mph - N/A   Overcast
11:51 PM 44.1 °F 42.5 °F 37.0 °F 76% 30.11 in 10.0 mi SSW 3.5 mph - N/A   Overcast